When you browse on this site, cookies collect data to enhance your experience and personalize the content and advertising you see.
Visit our Privacy Policy to learn more. By continuing to use the site, you agree to this use of cookies and data.
  • In France
  • List of Countries
  • For 7 days
  • Water Temperature
  • Weather Map
  • Weather Widgets
  • user-avatar
    Login

    Hourly Weather Salva

    Today, 7 April, Tuesday

    Time Temperature Precipitation Wind Pressure Humidity
    00:00 +27°C° 0 mm 1 mps 760 mmHg 26%
    01:00 +27°C° 0 mm 1 mps 760 mmHg 26%
    02:00 +27°C° 0 mm 1 mps 759 mmHg 25%
    03:00 +26°C° 0 mm 1 mps 758 mmHg 25%
    04:00 +27°C° 0 mm 1 mps 759 mmHg 24%
    05:00 +27°C° 0 mm 1 mps 759 mmHg 24%
    06:00 +27°C° 0 mm 1 mps 760 mmHg 23%
    07:00 +29°C° 0 mm 2 mps 760 mmHg 20%
    08:00 +33°C° 0 mm 3 mps 760 mmHg 17%
    09:00 +35°C° 0 mm 3 mps 760 mmHg 14%
    10:00 +36°C° 0 mm 3 mps 760 mmHg 14%
    11:00 +37°C° 0 mm 2 mps 759 mmHg 13%
    12:00 +38°C° 0 mm 2 mps 759 mmHg 12%
    13:00 +38°C° 0 mm 2 mps 758 mmHg 12%
    14:00 +39°C° 0 mm 2 mps 757 mmHg 12%
    15:00 +39°C° 0 mm 2 mps 757 mmHg 12%
    16:00 +38°C° 0 mm 3 mps 757 mmHg 14%
    17:00 +36°C° 0 mm 4 mps 757 mmHg 15%
    18:00 +35°C° 0 mm 4 mps 757 mmHg 17%
    19:00 +34°C° 0 mm 4 mps 757 mmHg 19%
    20:00 +33°C° 0 mm 4 mps 757 mmHg 21%
    21:00 +32°C° 0 mm 5 mps 757 mmHg 23%
    22:00 +30°C° 0 mm 4 mps 757 mmHg 24%
    23:00 +30°C° 0 mm 4 mps 757 mmHg 25%

    Tomorrow, 8 April, Wednesday

    Time Temperature Precipitation Wind Pressure Humidity
    00:00 +29°C° 0 mm 4 mps 757 mmHg 25%
    01:00 +29°C° 0 mm 4 mps 757 mmHg 25%
    02:00 +29°C° 0 mm 4 mps 756 mmHg 24%
    03:00 +29°C° 0 mm 4 mps 756 mmHg 23%
    04:00 +29°C° 0 mm 4 mps 756 mmHg 22%
    05:00 +29°C° 0 mm 5 mps 757 mmHg 20%
    06:00 +29°C° 0 mm 5 mps 757 mmHg 18%
    07:00 +33°C° 0 mm 4 mps 757 mmHg 16%
    08:00 +35°C° 0 mm 3 mps 757 mmHg 15%
    09:00 +37°C° 0 mm 3 mps 758 mmHg 13%
    10:00 +39°C° 0 mm 3 mps 757 mmHg 12%
    11:00 +42°C° 0 mm 4 mps 757 mmHg 11%
    12:00 +43°C° 0 mm 5 mps 757 mmHg 10%
    13:00 +44°C° 0 mm 4 mps 756 mmHg 10%
    14:00 +44°C° 0 mm 4 mps 755 mmHg 10%
    15:00 +45°C° 0 mm 4 mps 754 mmHg 10%
    16:00 +43°C° 0 mm 4 mps 754 mmHg 11%
    17:00 +42°C° 0 mm 4 mps 754 mmHg 12%
    18:00 +41°C° 0 mm 5 mps 754 mmHg 14%
    19:00 +39°C° 0 mm 5 mps 755 mmHg 16%
    20:00 +38°C° 0 mm 6 mps 755 mmHg 19%
    21:00 +36°C° 0 mm 7 mps 756 mmHg 21%
    22:00 +35°C° 0 mm 6 mps 755 mmHg 21%
    23:00 +35°C° 0 mm 6 mps 755 mmHg 22%

    Day after tomorrow, 9 April, Thursday

    Time Temperature Precipitation Wind Pressure Humidity
    00:00 +34°C° 0 mm 5 mps 755 mmHg 22%
    01:00 +34°C° 0 mm 5 mps 755 mmHg 21%
    02:00 +34°C° 0 mm 5 mps 755 mmHg 21%
    03:00 +33°C° 0 mm 4 mps 754 mmHg 20%
    04:00 +33°C° 0 mm 4 mps 755 mmHg 19%
    05:00 +33°C° 0 mm 4 mps 756 mmHg 19%
    06:00 +33°C° 0 mm 4 mps 756 mmHg 18%
    07:00 +35°C° 0 mm 4 mps 756 mmHg 16%
    08:00 +39°C° 0 mm 5 mps 757 mmHg 13%
    09:00 +41°C° 0 mm 5 mps 757 mmHg 11%
    10:00 +43°C° 0 mm 5 mps 757 mmHg 10%
    11:00 +45°C° 0 mm 5 mps 756 mmHg 9%
    12:00 +47°C° 0 mm 5 mps 756 mmHg 8%
    13:00 +47°C° 0 mm 5 mps 755 mmHg 8%
    14:00 +47°C° 0 mm 5 mps 755 mmHg 9%
    15:00 +47°C° 0 mm 5 mps 754 mmHg 9%
    16:00 +45°C° 0 mm 5 mps 754 mmHg 12%
    17:00 +42°C° 0 mm 6 mps 754 mmHg 15%
    18:00 +40°C° 0 mm 6 mps 754 mmHg 18%
    19:00 +39°C° 0 mm 6 mps 755 mmHg 22%
    20:00 +36°C° 0 mm 6 mps 755 mmHg 26%
    21:00 +35°C° 0 mm 6 mps 755 mmHg 29%
    22:00 +34°C° 0 mm 5 mps 755 mmHg 30%
    23:00 +34°C° 0 mm 5 mps 755 mmHg 31%

    10 April, Friday

    Time Temperature Precipitation Wind Pressure Humidity
    00:00 +34°C° 0 mm 5 mps 755 mmHg 32%
    01:00 +33°C° 0 mm 5 mps 755 mmHg 31%
    02:00 +33°C° 0 mm 4 mps 754 mmHg 31%
    03:00 +33°C° 0 mm 4 mps 754 mmHg 30%
    04:00 +33°C° 0 mm 4 mps 754 mmHg 28%
    05:00 +33°C° 0 mm 4 mps 755 mmHg 25%
    06:00 +33°C° 0 mm 4 mps 755 mmHg 23%
    07:00 +35°C° 0 mm 5 mps 755 mmHg 20%
    08:00 +38°C° 0 mm 6 mps 756 mmHg 17%
    09:00 +41°C° 0 mm 6 mps 756 mmHg 13%
    10:00 +43°C° 0 mm 7 mps 755 mmHg 11%
    11:00 +45°C° 0 mm 7 mps 755 mmHg 9%
    12:00 +47°C° 0 mm 7 mps 755 mmHg 7%
    13:00 +47°C° 0 mm 7 mps 754 mmHg 7%
    14:00 +47°C° 0 mm 6 mps 754 mmHg 7%
    15:00 +47°C° 0 mm 6 mps 753 mmHg 7%
    16:00 +45°C° 0 mm 5 mps 753 mmHg 8%
    17:00 +43°C° 0 mm 4 mps 753 mmHg 9%
    18:00 +42°C° 0 mm 3 mps 753 mmHg 10%
    19:00 +40°C° 0 mm 3 mps 753 mmHg 11%
    20:00 +40°C° 0 mm 4 mps 754 mmHg 12%
    21:00 +38°C° 0 mm 4 mps 754 mmHg 13%
    22:00 +37°C° 0 mm 4 mps 754 mmHg 13%
    23:00 +37°C° 0 mm 5 mps 754 mmHg 12%

    11 April, Saturday

    Time Temperature Precipitation Wind Pressure Humidity
    00:00 +38°C° 0 mm 6 mps 753 mmHg 12%
    01:00 +36°C° 0 mm 6 mps 753 mmHg 12%
    02:00 +36°C° 0 mm 6 mps 753 mmHg 12%
    03:00 +35°C° 0 mm 6 mps 753 mmHg 12%
    04:00 +35°C° 0 mm 6 mps 753 mmHg 13%
    05:00 +34°C° 0 mm 7 mps 754 mmHg 13%
    06:00 +34°C° 0 mm 7 mps 754 mmHg 14%
    07:00 +37°C° 0 mm 8 mps 755 mmHg 13%
    08:00 +39°C° 0 mm 9 mps 755 mmHg 12%
    09:00 +42°C° 0 mm 11 mps 755 mmHg 12%
    10:00 +44°C° 0 mm 10 mps 755 mmHg 11%
    11:00 +45°C° 0 mm 10 mps 755 mmHg 10%
    12:00 +47°C° 0 mm 10 mps 754 mmHg 9%
    13:00 +47°C° 0 mm 10 mps 754 mmHg 9%
    14:00 +47°C° 0 mm 9 mps 753 mmHg 9%
    15:00 +46°C° 0 mm 8 mps 753 mmHg 9%
    16:00 +45°C° 0 mm 7 mps 753 mmHg 10%
    17:00 +44°C° 0 mm 6 mps 753 mmHg 10%
    18:00 +41°C° 0 mm 5 mps 753 mmHg 10%
    19:00 +40°C° 0 mm 5 mps 753 mmHg 11%
    20:00 +39°C° 0 mm 5 mps 754 mmHg 11%
    21:00 +37°C° 0 mm 5 mps 754 mmHg 12%
    22:00 +37°C° 0 mm 5 mps 754 mmHg 12%
    23:00 +36°C° 0 mm 5 mps 754 mmHg 13%

    12 April, Sunday

    Time Temperature Precipitation Wind Pressure Humidity
    00:00 +35°C° 0 mm 5 mps 754 mmHg 13%
    01:00 +34°C° 0 mm 5 mps 754 mmHg 19%
    02:00 +33°C° 0 mm 6 mps 754 mmHg 25%
    03:00 +30°C° 0 mm 6 mps 754 mmHg 31%
    04:00 +30°C° 0 mm 5 mps 754 mmHg 34%
    05:00 +29°C° 0 mm 5 mps 755 mmHg 37%
    06:00 +29°C° 0 mm 4 mps 755 mmHg 40%
    07:00 +32°C° 0 mm 4 mps 756 mmHg 34%
    08:00 +34°C° 0 mm 4 mps 756 mmHg 28%
    09:00 +36°C° 0 mm 3 mps 756 mmHg 23%
    10:00 +36°C° 0 mm 4 mps 756 mmHg 24%
    11:00 +37°C° 0 mm 4 mps 755 mmHg 26%
    12:00 +37°C° 0 mm 5 mps 755 mmHg 27%
    13:00 +36°C° 0 mm 6 mps 755 mmHg 30%
    14:00 +36°C° 0 mm 7 mps 754 mmHg 33%
    15:00 +35°C° 0 mm 8 mps 754 mmHg 35%
    16:00 +34°C° 0 mm 8 mps 754 mmHg 43%
    17:00 +32°C° 0 mm 8 mps 754 mmHg 50%
    18:00 +29°C° 0 mm 8 mps 754 mmHg 58%
    19:00 +29°C° 0 mm 8 mps 755 mmHg 61%
    20:00 +28°C° 0 mm 8 mps 756 mmHg 65%
    21:00 +27°C° 0 mm 9 mps 756 mmHg 69%
    22:00 +27°C° 0 mm 8 mps 756 mmHg 69%
    23:00 +27°C° 0 mm 8 mps 756 mmHg 69%
    Show more